Overview Statistics Trail Chart Weather Telemetry Raw packets
 

This is the latest recevied telemetry packets stored in our database for station/object DL0DE-10. If no packets are shown the sender has not sent any telemetry packets the latest 10 day(s).

Telemetry packets is used to share measurements like repeteater parameters, battery voltage, radiation readings (or any other measurements).

<< 1 2 3 4 >>
Time Press* Temp.in* Hum* eGAS* Temp.out*
1788586100 1003.6 hPa 30.4 C deg 33.1 % 459 - 0 C deg
1788584288 1003.3 hPa 30 C deg 33.6 % 461 - 0 C deg
1788582475 1002.9 hPa 30.3 C deg 33.3 % 456 - 0 C deg
1788580663 1002.6 hPa 30.2 C deg 33.5 % 453 - 0 C deg
1788578842 1002.6 hPa 30.6 C deg 33.1 % 450 - 0 C deg
1788577044 1002.6 hPa 30.6 C deg 33.2 % 451 - 0 C deg
1788575210 1002.4 hPa 30.8 C deg 33.1 % 446 - 0 C deg
1788573420 1002.3 hPa 30.8 C deg 33.1 % 443 - 0 C deg
1788573395 1002.3 hPa 30.8 C deg 33.1 % 443 - 0 C deg
1788571593 1002.1 hPa 30.9 C deg 33.1 % 442 - 0 C deg
1788571593 1002.1 hPa 30.9 C deg 33.1 % 442 - 0 C deg
1788569764 1002.1 hPa 30.9 C deg 33.2 % 440 - 0 C deg
1788567953 1002 hPa 31 C deg 33.3 % 437 - 0 C deg
1788566161 1002 hPa 31 C deg 33.3 % 434 - 0 C deg
1788564323 1001.8 hPa 31.1 C deg 33.3 % 433 - 0 C deg
1788562518 1001.7 hPa 31.2 C deg 33.3 % 428 - 0 C deg
1788560689 1001.3 hPa 31.3 C deg 33.3 % 425 - 0 C deg
1788558873 1001.1 hPa 31.3 C deg 33.2 % 422 - 0 C deg
1788557058 1000.8 hPa 31.4 C deg 33.2 % 423 - 0 C deg
1788555250 1000.6 hPa 31.5 C deg 33.2 % 422 - 0 C deg
1788553430 1000.3 hPa 31.5 C deg 33.2 % 422 - 0 C deg
1788551613 1000.3 hPa 31.5 C deg 33.1 % 421 - 0 C deg
1788549808 999.9 hPa 31.6 C deg 33 % 419 - 0 C deg
1788549801 999.9 hPa 31.6 C deg 33 % 419 - 0 C deg
1788547983 999.5 hPa 31.7 C deg 33 % 416 - 0 C deg
*Used Equation Coefficients:
Press: 0, 1, 0
Temp.in: 0, 1, 0
Hum: 0, 1, 0
eGAS: 0, 1, 0
Temp.out: 0, 1, 0

  • The parameter names for the analog channels will be Value1, Value2, Value3 (up to Value5) if station has not sent a PARAM-packet that specifies the parameter names for each analog channel.
  • Each analog value is a decimal number between 000 and 255 (according to APRS specifications). The receiver use the telemetry equation coefficientsto to restore the original sensor values. If no EQNS-packet with equation coefficients is sent we will show the values as is (this corresponds to the equation coefficients a=0, b=1 and c=0).
    The sent equation coefficients is used in the equation: a * value2 + b * value + c.
  • The units for the analog values will not be shown if station has not sent a UNIT-packet specifying what unit's to use.
  • The parameter names for the digital bits will be Bit1, Bit2, Bit3 (up to Bit8) if station has not sent a PARAM-packet that specifies the parameter names for each digital bit.
  • All bit labels will be named "On" if station has not sent a UNIT-packet that specifies the label of each bit.
  • A bit is considered to be On when the bit is 1 if station has not sent a BITS-packet that specifies another "Bit sense" (a BITS-packet specify the state of the bits that match the BIT labels)